Location: Whispering Pines Observatory
(39.4020°N, 104.7430°W)
Time: 23:47:07
(UTC-07:00)

MOS 1 Rocket - Visible Passes

Search period start: 09 February 2016 00:00
Search period end: 19 February 2016 00:00
Orbit: 614 x 833 km, 97.4° (Epoch: 09 February)

Date Brightness Start Highest point End Pass type
(mag) Time Alt. Az. Time Alt. Az. Time Alt. Az.
09 Feb 6.0 05:21:26 10° NE 05:25:14 23° E 05:29:10 10° SE visible
09 Feb 5.0 18:07:54 10° SSW 18:11:49 34° W 18:15:45 10° NNW visible
10 Feb 3.8 06:09:58 10° NNE 06:14:47 73° ESE 06:19:52 10° S visible
11 Feb 5.9 05:21:52 10° NE 05:25:48 24° E 05:29:52 10° SSE visible
11 Feb 5.1 18:08:27 10° SSW 18:12:20 33° W 18:16:14 10° NNW visible
12 Feb 3.7 06:10:28 10° NNE 06:15:20 75° ESE 06:20:29 10° S visible
13 Feb 5.9 05:22:18 10° NE 05:26:21 25° E 05:30:33 10° SSE visible
13 Feb 5.2 18:09:00 10° SSW 18:12:49 32° W 18:16:42 10° NNW visible
14 Feb 3.7 06:10:57 10° NNE 06:15:53 78° ESE 06:21:06 10° S visible
15 Feb 5.8 05:22:44 10° NE 05:26:55 26° E 05:31:14 10° SSE visible
15 Feb 5.3 18:09:31 10° SSW 18:13:19 31° W 18:17:11 10° NNW visible
16 Feb 3.7 06:11:26 10° NNE 06:16:27 80° ESE 06:21:43 10° S visible
17 Feb 5.8 05:23:12 10° NE 05:27:28 27° E 05:31:54 10° SSE visible
17 Feb 5.4 18:10:03 10° SSW 18:13:49 30° W 18:17:41 10° NNW visible
18 Feb 3.7 06:11:55 10° NNE 06:17:00 83° ESE 06:22:19 10° S visible
